Regional Weather Roundup
Issued by NWS

Home | Current Version | Previous Version | Text Only | Print | Product List | Glossary On
Versions: 1 2 3 4 5 6 7 8 9 10 11 12 13 14 15 16 17 18 19 20 21 22 23 24 25 26 27 28 29 30 31 32 33 34 35 36 37 38 39 40 41 42 43 44 45 46 47 48 49 50
000
ASUS43 KLSX 291559
RWRMO

WEATHER SUMMARY FOR MISSOURI
NATIONAL WEATHER SERVICE SPRINGFIELD MO
1100 AM CDT MON JUN 29 2015

NOTE: "FAIR" INDICATES FEW OR NO CLOUDS BELOW 12,000 FEET WITH NO
       SIGNIFICANT WEATHER AND/OR OBSTRUCTIONS TO VISIBILITY.
       CURRENT SKY AND/OR WEATHER CONDITIONS ARE NOT AVAILABLE FOR
       CHILLICOTHE AND FARMINGTON.

MOZ001>031-035>038-043-044-053-054-291700-
...NORTHERN AND WESTERN MISSOURI...

CITY           SKY/WX    TMP DP  RH WIND       PRES   REMARKS
KANSAS CTY INT SUNNY     79  66  64 NW8       29.95S
KANSAS C DTWN  SUNNY     81  66  60 NW7       29.93S
LEE`S SUMMIT   SUNNY     81  62  52 N9        29.95R
ST JOSEPH      SUNNY     80  64  58 W8        29.94S
CHILLICOTHE      N/A     82  66  58 NW8       29.92S
KIRKSVILLE     SUNNY     80  65  59 NW10      29.90S

$$
MOZ066>068-077>081-088>096-101>105-291700-
...SOUTHWEST MISSOURI...

CITY           SKY/WX    TMP DP  RH WIND       PRES   REMARKS
SPRINGFIELD    SUNNY     81  65  58 NW9       29.94S
JOPLIN         SUNNY     83  65  54 N7        29.96S

$$
MOZ032>034-039>042-045>050-055>058-069>072-291700-
...CENTRAL MISSOURI...

CITY           SKY/WX    TMP DP  RH WIND       PRES   REMARKS
COLUMBIA       SUNNY     81  66  60 N9        29.90S
JEFFERSON CITY SUNNY     80  66  62 W10       29.89S
ROLLA          SUNNY     78  65  63 NW13      29.90R
SEDALIA        SUNNY     82  67  60 NW9       29.93S
OSAGE BEACH    MOSUNNY   79  66  65 W7        29.92S

$$
MOZ051-052-059>065-291700-
...EAST CENTRAL MISSOURI...

CITY           SKY/WX    TMP DP  RH WIND       PRES   REMARKS
ST LOUIS INTL  PTSUNNY   78  64  61 N10       29.87S
SPIRIT OF STL  PTSUNNY   77  68  73 W7        29.86S
ST CHARLES     PTSUNNY   74  67  78 NW9       29.87R

$$
MOZ072>076-082>087-097>100-106>115-291700-
...SOUTH CENTRAL AND SOUTHEAST MISSOURI...

CITY           SKY/WX    TMP DP  RH WIND       PRES   REMARKS
CAPE GIRARDEAU SUNNY     82  68  62 NW5       29.85F
FARMINGTON     PTSUNNY   79  64  61 NW9       29.92S
POPLAR BLUFF   SUNNY     83  68  60 W8        29.85F
WEST PLAINS    SUNNY     79  69  71 NW7       29.93S

$$



USA.gov is the U.S. government's official web portal to all federal, state and local government web resources and services.